Photometre #741[NE_1.6] Arcachon AOT

File : 20220926_741.hum

26/09/2022,06:46:35,TEMP=12.0,BA=5.40,STAT.A=1.0,ExtBa=12.79
26/09/2022,06:50:13,TEMP=12.3,BA=5.28,STAT.A=1.0,ExtBa=12.71
26/09/2022,06:54:28,TEMP=12.4,BA=5.28,STAT.A=1.0,ExtBa=12.67
26/09/2022,06:59:32,TEMP=12.6,BA=5.28,STAT.A=1.0,ExtBa=12.66
26/09/2022,07:05:38,TEMP=12.7,BA=5.20,STAT.A=1.0,ExtBa=12.67
26/09/2022,07:13:11,TEMP=12.9,BA=5.48,STAT.A=1.0,ExtBa=12.68
26/09/2022,07:22:44,TEMP=13.3,BA=5.48,STAT.B=1.0,ExtBa=12.69
26/09/2022,07:27:18,TEMP=13.6,BA=5.48,STAT.A=1.0,ExtBa=12.66
26/09/2022,07:32:27,TEMP=13.8,BA=5.56,STAT.A=1.5,ExtBa=12.66
26/09/2022,07:38:14,TEMP=14.1,BA=5.56,STAT.A=1.5,ExtBa=12.67
26/09/2022,07:44:50,TEMP=14.6,BA=5.52,STAT.A=1.5,ExtBa=12.73
26/09/2022,07:52:26,TEMP=15.4,BA=5.64,STAT.C=1.5,ExtBa=12.82
26/09/2022,08:06:33,TEMP=16.5,BA=5.36,STAT.A=1.5,ExtBa=12.55
26/09/2022,08:11:48,TEMP=16.3,BA=5.64,STAT.A=1.5,ExtBa=12.67
26/09/2022,08:24:27,TEMP=16.5,BA=5.64,STAT.A=1.5,ExtBa=12.76
26/09/2022,08:40:09,TEMP=18.5,BA=5.52,STAT.A=1.5,ExtBa=13.32
26/09/2022,08:56:40,TEMP=20.7,BA=5.64,STAT.F,ExtBa=13.03
26/09/2022,09:11:39,TEMP=20.5,BA=5.64,STAT.D=1.5,ExtBa=13.10
26/09/2022,09:26:39,TEMP=21.2,BA=5.64,STAT.D=2.0,ExtBa=13.16
26/09/2022,09:41:39,TEMP=21.5,BA=5.64,STAT.D=2.0,ExtBa=13.22
26/09/2022,09:56:41,TEMP=21.8,BA=5.64,STAT.F,ExtBa=13.24
26/09/2022,10:11:39,TEMP=22.2,BA=5.64,STAT.D=2.0,ExtBa=13.28
26/09/2022,10:26:39,TEMP=22.2,BA=5.64,STAT.D=2.0,ExtBa=13.33
26/09/2022,10:41:39,TEMP=23.6,BA=5.64,STAT.D=2.0,ExtBa=13.47
26/09/2022,10:56:41,TEMP=24.1,BA=5.64,STAT.F,ExtBa=13.32
26/09/2022,11:11:39,TEMP=23.5,BA=5.60,STAT.D=2.0,ExtBa=13.07
26/09/2022,11:26:39,TEMP=22.6,BA=5.60,STAT.D=2.0,ExtBa=12.99
26/09/2022,11:41:39,TEMP=21.7,BA=5.60,STAT.D=2.0,ExtBa=13.12
26/09/2022,11:56:41,TEMP=22.0,BA=5.64,STAT.F,ExtBa=13.31
26/09/2022,12:11:39,TEMP=22.7,BA=5.64,STAT.D=2.0,ExtBa=13.23
26/09/2022,12:26:39,TEMP=23.2,BA=5.64,STAT.D=2.0,ExtBa=13.16
26/09/2022,12:41:39,TEMP=22.8,BA=5.64,STAT.D=2.0,ExtBa=13.30
26/09/2022,12:56:41,TEMP=23.3,BA=5.64,STAT.F,ExtBa=13.19
26/09/2022,13:11:39,TEMP=23.7,BA=5.60,STAT.D=2.0,ExtBa=13.43
26/09/2022,13:26:39,TEMP=22.8,BA=5.64,STAT.D=2.0,ExtBa=13.49
26/09/2022,13:41:39,TEMP=22.8,BA=5.64,STAT.D=2.0,ExtBa=13.50
26/09/2022,13:56:41,TEMP=22.9,BA=5.64,STAT.F,ExtBa=13.29
26/09/2022,14:11:39,TEMP=21.7,BA=5.60,STAT.D=2.0,ExtBa=13.12
26/09/2022,14:26:39,TEMP=22.0,BA=5.64,STAT.D=2.0,ExtBa=13.49
26/09/2022,14:41:39,TEMP=22.7,BA=5.64,STAT.D=2.0,ExtBa=13.47
26/09/2022,14:56:40,TEMP=23.3,BA=5.64,STAT.F,ExtBa=13.39
26/09/2022,15:13:11,TEMP=22.4,BA=5.40,STAT.A=2.0,ExtBa=13.25
26/09/2022,15:28:53,TEMP=21.9,BA=5.60,STAT.A=2.0,ExtBa=13.11
26/09/2022,15:41:32,TEMP=20.9,BA=5.44,STAT.A=2.0,ExtBa=12.98
26/09/2022,15:52:02,TEMP=20.0,BA=5.40,STAT.A=1.5,ExtBa=12.95
26/09/2022,16:00:54,TEMP=18.9,BA=5.40,STAT.C=1.5,ExtBa=12.93
26/09/2022,16:08:09,TEMP=19.0,BA=5.40,STAT.h
26/09/2022,16:14:45,TEMP=19.0,BA=5.48,STAT.h
26/09/2022,16:20:32,TEMP=19.0,BA=5.40,STAT.h
26/09/2022,16:25:40,TEMP=19.0,BA=5.40,STAT.h
26/09/2022,16:30:36,TEMP=17.3,BA=5.40,STAT.B=1.5,ExtBa=12.92
26/09/2022,16:40:08,TEMP=17.7,BA=5.36,STAT.A=1.5,ExtBa=12.90
26/09/2022,16:47:41,TEMP=18.0,BA=5.36,STAT.A=1.5,ExtBa=12.88
26/09/2022,16:53:47,TEMP=18.2,BA=5.40,STAT.A=1.5,ExtBa=12.87
26/09/2022,16:58:50,TEMP=18.4,BA=5.40,STAT.A=1.5,ExtBa=12.86
26/09/2022,17:04:52,TEMP=18.6,BA=5.32,STAT.A=1.5,ExtBa=12.86
26/09/2022,17:06:45,TEMP=19.0,BA=5.32,STAT.A=1.5,ExtBa=12.81